THORAD DELTA 1 DEB, 8561

Orbit data source: Space-Track

THORAD DELTA 1 DEB, 8561 is space debris in SSO originally from a launch on Fri, 15 Nov 1974 UTC launched from the Air Force Western Test Range (AFWTR). Debris objects in space refer to the collection of defunct objects orbiting the Earth. Examples of debris include non-operational satellites, rocket bodies, and fragments generated from explosions, collisions, or faulty payload assembly.

Loading next visibility...
Identifier
8561, 1974-089CY
Orbit
SSO
Country
Flag of USUS
Related business
Manufacturer
Unknown
Mission
Spacecraft
Bus & Motor
Unknown
Mass
Unknown
Launch date (UTC)
1974-11-15 (52 years ago)
Launch vehicle
Unknown
Launch site
Air Force Western Test Range (AFWTR)
Object type
Payload
Rocket body
Debris
Shape & HBR
Unknown shape, 0.1 m
Radar Cross Section
Medium (>0.1 m² and <1 m²)

Expand to show TLE details & history
Last TLE update: 2 days ago

TLE from 2 days ago
0 THORAD DELTA 1 DEB
1 08561U 74089CY  26174.08989934 -.00000038  00000-0  36323-4 0  9991
2 08561 101.4975 216.8421 0071672 153.8899 234.8848 12.67702676376062
Epoch: 2026-06-23T02:09Z
TLE epoch observation values (Epoch: 2026-06-23T02:09:27.302Z)
Latitude
27.53331°
Longitude
-92.84495°
Altitude
1,426.723 km
Speed
7.135 km/s
True Right ascension
14h 03m 08s
True Declination
27° 24' 17"
Sunlit
Object was in daylight at epoch
Visualization orbit readout
Latitude
Unknown
Longitude
Unknown
Altitude
Unknown
Speed
Unknown
Apparent Right ascension
Unknown
Apparent Declination
Unknown
Sunlit
N/A
Visualization observer readout
Local Sidereal Time
08:03:33
Azimuth
Unknown
Elevation
Unknown
Doppler factor
Unknown
Orbital elements
Apogee altitude
1,444.488 km
Perigee altitude
1,333.154 km
Semi-major axis
7,766.958 km
Eccentricity
0.00717
Inclination
101.4975°
RAAN
216.8421°
Arg. of periapsis
153.8899°
True anomaly
234.21644°
Mean anomaly
234.8848°
Eccentric anomaly
234.55027°
Mean motion
3.17078 °/min
Orbital period
113.54 mins
BSTAR
0.000036323
Loading maneuver chart data...
Computing Atmospheric mass density...

Documentation

Showing up to 5 results
|